リニア彗星

C/2000 SV74 ( LINEAR )

English version
Home page
Updated on March 26, 2005

---------------------------------------------------------------------

・ プロフィール

発見日 2000年9月24日
発見光度 17.8等
発見者 Lincoln Laboratory Near-Earth Asteroid Research project

・ 軌道要素

Epoch 2002 May 6.0 TT = JDT 2452400.5
T 2002 Apr. 30.4970 TT                                  MPCN
q   3.541559             (2000.0)            P               Q
z  -0.001358       Peri.   76.2313      +0.1157156      -0.9108571
 +/-0.000001       Node    24.1855      -0.0769916      -0.4058726
e   1.004810       Incl.   75.2373      +0.9902940      +0.0748783
From 717 observations 2000 Sept. 5-2002 June 18, mean residual 0".7.

・ 星図

・ 光度変化

        m1 = 3.0 + 5 logΔ + 12.5 log r

---------------------------------------------------------------------

軌道要素はMPCのEphemerides and Orbital Elementsに掲載されたものです。
星図は StellaNavigator Ver.2.0 for Windows (アストロアーツ 編著 / アスキー出版局刊) で作成したものです。
光度グラフはComet for Windowsで作成したものです。

---------------------------------------------------------------------

Copyright(C) Seiichi Yoshida (comet@aerith.net). All rights reserved.